Theta_e
300 300 299 299 299 300 304 305 305 306 308 309 309 308 307 308 310 310 312 318 319 315 313 316 318 319 325 325 327 330 331 329 327 327 327 327 329 327 327 329 328 327 328 328 328
303 302 302 301 301 300 299 300 301 302 303 305 306 308 309 308 307 308 315 315 317 314 314 315 313 317 325 327 327 329 331 328 327 326 327 327 327 328 328 329 329 329 329 328 329
302 302 303 302 302 302 302 302 300 300 300 301 302 304 306 308 308 309 311 313 315 315 312 313 313 318 324 326 327 328 330 328 327 326 326 327 327 327 328 329 328 328 328 329 329
300 301 301 301 302 302 302 302 302 302 302 300 299 300 303 305 310 311 313 313 314 314 312 312 318 322 322 325 326 328 327 328 328 327 327 327 327 328 328 328 328 328 328 328 329
300 300 300 300 300 301 301 301 302 302 302 302 302 300 301 307 307 309 314 315 314 317 312 314 318 318 320 322 323 328 327 327 328 328 328 327 328 328 327 326 326 327 328 328 328
299 299 299 300 300 300 300 300 301 301 301 301 302 301 303 306 307 309 309 312 313 310 312 312 317 319 320 321 322 323 324 325 326 326 327 327 326 326 326 325 326 326 325 325 326
297 298 298 299 300 300 300 300 300 300 301 301 302 304 306 305 307 308 309 310 310 308 308 310 313 317 318 320 321 322 324 325 324 325 326 323 322 323 322 323 323 323 324 325 324
298 299 298 299 299 300 300 300 300 300 300 301 305 307 306 303 304 306 308 309 309 308 307 308 309 312 315 316 317 318 319 320 320 320 320 320 322 322 321 322 323 323 323 323 322
300 300 300 300 300 300 300 300 300 301 302 304 305 305 306 303 303 305 305 306 308 309 306 309 310 314 314 317 319 318 320 319 319 319 320 321 322 321 321 321 321 322 322 323 323
303 302 301 301 301 301 301 300 302 306 307 304 305 305 303 305 307 307 308 308 307 308 309 309 312 315 315 316 319 319 317 319 319 319 319 320 321 321 319 321 322 322 322 323 323
302 302 301 301 301 301 301 302 305 306 304 306 305 305 304 304 305 305 309 307 309 307 311 309 312 315 316 315 316 319 320 320 320 318 318 319 320 321 321 321 322 322 322 322 322
301 302 302 301 301 300 303 304 303 304 305 304 303 305 303 303 306 305 306 308 308 309 310 310 312 314 316 315 315 315 318 319 319 318 318 320 321 321 322 322 321 321 323 323 324
301 302 302 302 301 302 301 303 303 303 305 305 305 306 306 306 307 306 307 308 309 309 309 312 314 312 313 316 315 315 316 317 317 318 319 320 321 321 322 322 321 321 323 323 324
301 301 301 301 302 301 302 303 303 303 307 306 307 306 307 307 308 307 306 308 309 310 310 311 313 312 312 314 316 317 316 316 316 317 319 320 323 323 322 322 322 322 324 324 323
300 300 300 300 302 303 301 303 303 305 303 304 309 308 307 308 308 310 308 307 310 310 310 311 311 311 312 313 315 316 316 317 317 318 320 321 322 321 321 322 323 323 324 325 323
301 300 300 301 302 301 302 302 305 307 304 305 307 306 307 308 308 308 309 307 309 312 311 312 311 312 313 313 315 316 318 318 319 320 322 321 320 321 321 322 322 325 325 323 324
301 300 301 303 303 302 302 303 305 304 303 306 306 306 306 307 308 307 309 310 310 313 314 312 312 312 312 313 315 318 319 320 320 320 321 320 321 321 321 322 324 325 326 324 324
301 300 303 304 304 302 302 304 303 302 305 305 305 305 305 306 306 306 309 314 310 312 315 315 314 313 312 313 314 318 320 319 320 321 321 320 320 320 323 322 321 323 324 323 325
300 301 303 304 304 302 303 304 302 304 305 305 305 304 305 306 305 304 307 313 313 309 311 316 316 315 313 314 316 318 320 319 320 321 322 323 322 323 324 325 325 324 324 325 326
300 302 303 303 302 302 305 304 303 303 304 304 304 304 305 305 305 305 306 308 309 310 310 314 315 316 314 314 315 318 319 318 319 319 319 323 325 325 326 326 327 328 327 326 326
300 301 303 302 302 302 306 305 305 304 304 304 304 304 305 304 305 307 306 306 308 308 310 312 315 316 315 315 315 315 319 318 318 319 318 318 321 327 328 328 329 330 327 326 326
300 303 302 304 304 302 304 303 303 304 304 305 305 305 305 304 305 307 307 306 307 308 311 311 316 317 316 316 316 316 317 318 318 319 320 320 322 323 327 325 328 328 326 326 326
300 299 301 303 303 303 302 302 303 304 304 305 305 304 305 306 307 307 308 308 307 307 308 311 316 318 316 316 316 316 316 318 318 319 319 319 321 323 327 326 324 327 326 326 326
300 302 301 301 301 302 302 302 303 303 305 304 305 305 306 306 306 308 308 307 307 307 309 310 312 316 317 317 317 316 316 316 318 317 318 318 318 322 324 327 327 326 326 326 326
300 301 300 302 302 302 301 302 303 303 303 303 306 306 307 307 307 310 308 309 309 309 309 311 312 311 312 312 314 317 316 316 316 317 317 317 318 322 322 326 329 326 326 327 327
301 301 301 301 301 301 301 302 303 303 303 303 305 305 305 306 306 307 308 309 311 309 311 311 312 311 314 314 315 317 317 316 316 316 318 319 321 320 321 325 326 326 326 327 327
301 300 301 301 301 302 303 303 304 303 304 304 304 304 305 306 305 306 305 306 307 310 311 311 312 312 316 313 316 317 318 318 316 316 317 318 319 321 324 327 329 327 327 328 328
Wind_Speed
15 17 19 20 22 22 23 26 26 25 25 27 29 29 29 29 28 27 29 27 17 9 15 12 11 16 16 14 12 6 6 11 8 9 8 1 3 1 1 9 8 10 16 13 16
14 14 15 17 19 21 23 23 26 26 25 26 27 28 28 28 30 33 31 30 25 23 19 19 19 17 10 9 11 10 11 15 15 13 11 4 7 7 7 13 26 21 18 11 21
16 15 15 14 15 17 18 20 21 24 26 26 26 26 25 23 24 19 26 26 27 29 29 23 19 21 17 10 13 12 19 24 23 20 11 17 15 14 15 19 27 21 27 27 25
18 18 18 18 16 15 16 17 18 19 20 23 24 24 23 15 8 5 10 16 20 32 35 26 19 16 13 16 21 14 23 30 33 24 18 22 21 20 24 36 34 30 26 29 32
18 18 18 19 19 19 18 18 18 19 19 18 19 19 18 12 19 10 10 7 6 7 25 25 26 26 19 17 23 19 22 24 26 30 27 25 27 25 30 43 33 29 28 30 31
20 21 20 19 19 20 20 19 20 20 20 20 19 15 14 14 21 27 32 19 16 11 7 22 14 22 16 16 22 14 28 30 26 23 27 23 32 20 30 40 28 28 32 33 31
20 21 22 23 23 23 22 21 22 22 21 22 22 17 19 34 18 17 16 31 32 25 19 16 28 9 5 8 20 18 16 14 15 22 14 15 23 23 38 36 24 28 30 30 34
21 22 22 22 23 24 24 24 24 23 22 21 18 12 14 18 21 26 25 34 21 27 25 21 19 19 14 5 3 10 9 16 14 21 15 13 25 16 24 18 20 24 27 29 37
21 22 23 24 24 24 24 25 24 19 16 15 9 8 14 11 18 15 20 27 31 28 20 14 16 15 10 15 9 9 16 18 14 11 4 16 22 12 15 15 20 28 30 30 32
22 22 22 21 23 26 26 23 13 8 7 3 3 5 11 7 9 14 14 10 17 16 16 16 13 12 15 16 23 16 12 11 12 10 18 21 25 18 22 21 23 29 31 30 33
23 23 23 23 24 25 25 13 4 3 5 8 9 13 28 24 20 20 7 9 14 21 15 28 12 24 33 28 19 19 19 23 19 14 13 19 21 14 19 26 26 28 31 33 39
23 25 23 23 23 23 11 4 3 5 13 22 29 31 36 30 14 22 16 9 12 17 19 12 29 33 20 21 24 24 23 20 16 12 10 15 23 17 14 21 28 30 32 30 30
25 23 22 24 24 9 16 2 2 10 6 19 16 14 15 11 18 28 14 12 10 18 28 25 38 21 21 24 24 27 28 22 21 9 11 12 22 16 21 17 20 29 27 27 23
23 23 24 25 14 15 6 5 6 12 4 6 4 4 3 5 7 21 25 21 12 21 21 23 27 20 25 29 22 26 24 22 21 11 15 4 18 14 19 22 21 28 22 22 17
25 25 23 20 19 11 6 4 7 2 5 3 3 1 6 5 13 5 12 28 24 11 16 18 16 25 27 28 24 19 17 18 20 17 16 18 13 16 12 19 23 20 19 10 5
28 27 25 20 12 9 1 6 0 3 7 2 3 9 10 4 13 10 4 22 22 16 21 19 12 24 30 19 23 12 12 16 12 12 14 19 15 14 16 20 16 12 12 4 6
30 30 21 11 8 3 3 1 2 5 8 1 6 10 12 9 8 19 14 11 13 18 18 17 15 4 13 19 21 19 14 6 7 7 10 15 11 18 14 16 15 15 11 1 2
32 23 9 12 9 3 2 1 6 3 6 14 11 15 11 9 5 17 16 9 19 17 8 14 10 20 18 18 18 26 21 9 9 7 9 7 10 8 19 22 28 22 11 6 9
32 8 12 11 8 8 3 3 3 3 6 10 13 7 3 6 7 6 10 7 9 16 7 12 16 15 18 16 22 23 18 15 3 1 4 6 6 11 15 9 11 16 10 10 13
22 5 17 12 4 9 2 3 3 8 14 9 7 5 7 7 6 3 2 2 10 13 11 7 7 14 21 23 25 19 20 11 9 11 8 6 4 9 9 14 10 9 11 13 16
12 3 13 14 3 2 2 3 6 10 11 4 4 7 8 9 9 6 4 5 5 15 13 8 7 12 20 23 24 12 22 8 9 5 6 3 5 7 12 14 14 10 15 20 22
11 1 9 10 2 1 3 9 8 9 9 6 5 8 12 11 10 5 7 5 2 6 8 7 6 6 26 11 22 20 20 21 10 11 5 2 4 3 8 2 1 8 13 17 20
9 5 5 7 3 5 7 8 6 8 9 5 5 6 6 5 5 7 7 2 7 4 3 6 6 9 12 9 16 27 22 23 9 3 17 9 2 1 3 1 4 8 15 16 20
6 4 4 3 4 5 8 5 7 11 5 8 11 8 7 6 5 5 8 3 9 2 5 5 4 7 7 6 3 24 25 21 19 10 10 18 12 16 7 4 5 7 15 18 21
6 2 3 5 3 10 6 5 9 7 5 8 4 3 9 5 10 1 3 6 5 3 2 1 3 5 13 13 9 3 24 22 24 20 15 11 24 21 14 9 1 10 16 20 23
6 4 4 9 9 9 4 4 9 9 6 8 5 14 14 10 12 16 9 3 3 1 2 2 0 7 10 8 9 8 8 24 23 23 14 9 17 18 14 5 4 13 20 23 25
8 8 7 7 3 5 2 4 8 17 10 10 13 15 14 11 7 13 19 19 14 4 2 3 3 3 15 4 4 9 13 11 17 24 21 17 16 1 4 7 8 16 23 26 26
Wind_Direction
318 309 307 308 304 301 294 295 293 287 282 283 284 283 282 280 274 271 266 261 255 232 247 225 234 214 203 187 185 186 226 242 241 227 244 247 189 152 302 295 275 270 272 289 322
346 340 330 323 321 318 308 296 295 296 292 285 279 279 279 281 284 276 270 269 257 258 244 233 232 217 213 206 178 186 227 232 232 233 264 278 292 303 285 289 282 288 281 303 306
345 343 337 333 332 329 326 321 307 292 292 291 288 283 278 285 294 277 271 265 249 241 241 240 234 215 209 203 199 205 228 234 257 248 251 282 278 296 290 284 281 290 295 305 303
339 337 336 335 331 325 321 320 316 315 307 298 293 290 284 277 246 219 241 226 228 223 220 219 210 194 221 211 214 240 230 240 251 260 270 271 292 278 280 271 280 290 289 291 296
335 331 330 328 326 322 320 320 318 313 311 312 313 302 289 253 231 251 228 208 21 206 219 205 203 204 215 215 221 227 236 239 251 263 264 275 273 271 284 279 280 284 287 286 286
333 330 327 324 321 319 318 317 311 310 315 313 309 301 276 250 260 245 236 232 256 253 221 202 209 221 242 228 218 228 237 243 247 257 263 266 269 273 269 277 285 287 284 285 280
333 329 327 326 324 321 318 316 312 314 306 301 297 291 260 251 257 259 238 242 242 249 239 230 215 221 273 239 238 239 245 230 234 240 252 273 267 248 260 274 274 281 288 288 286
336 333 329 326 323 321 320 316 317 309 300 293 284 264 258 291 268 258 248 245 235 237 240 233 230 245 240 296 235 217 226 235 231 233 243 230 265 267 264 276 286 286 288 288 288
339 335 333 329 326 323 320 319 320 312 305 297 266 241 271 281 270 273 259 251 241 237 224 213 211 220 218 230 251 215 238 224 231 189 171 198 264 256 271 284 283 286 290 290 290
339 338 335 330 328 326 326 331 330 322 319 314 176 244 256 287 274 304 298 266 235 206 201 206 192 207 212 207 219 220 233 227 225 214 234 241 254 274 282 289 287 288 289 287 286
343 339 335 334 334 330 332 349 331 306 297 251 259 255 278 285 285 284 290 276 200 191 188 189 197 217 212 214 228 245 239 238 232 221 243 253 265 270 288 296 288 287 285 280 282
341 337 330 328 332 332 6 42 40 325 298 279 272 254 265 272 290 265 241 207 191 206 187 172 220 220 217 220 224 231 243 240 247 244 253 274 274 286 286 277 281 282 281 274 282
337 334 331 324 326 325 338 220 329 321 258 286 253 251 252 247 238 267 199 209 213 208 197 198 225 210 207 215 217 226 232 237 246 264 257 284 277 278 280 277 280 280 275 277 272
338 336 330 324 322 316 344 199 309 319 290 270 220 243 247 217 236 274 225 209 217 216 206 229 227 206 204 218 207 232 224 242 246 247 257 227 283 267 284 288 281 279 277 274 279
342 337 330 322 306 309 302 307 273 263 297 101 156 239 326 200 327 318 246 213 226 196 193 218 206 200 207 211 200 236 219 224 231 234 259 249 267 283 260 272 275 275 271 270 287
340 339 328 322 299 318 288 306 316 207 243 300 79 353 350 26 6 322 298 221 226 243 226 231 210 197 214 198 201 198 232 217 225 235 243 253 239 265 257 248 264 262 250 310 343
340 336 326 329 309 300 292 342 176 237 331 62 351 337 324 352 19 347 338 208 213 203 224 217 224 205 191 187 195 193 182 173 203 212 248 236 222 243 253 244 248 267 269 309 216
340 341 17 357 343 289 161 156 226 247 285 323 342 322 295 24 34 326 345 341 216 240 233 208 193 209 190 199 187 191 189 191 192 205 228 190 221 249 234 247 241 244 257 254 181
343 11 13 357 347 153 170 205 274 301 348 333 329 308 317 9 346 35 336 304 10 230 270 215 226 183 187 186 170 194 207 196 226 14 254 172 250 278 248 249 220 228 217 195 177
352 75 14 2 30 157 243 266 253 292 316 311 298 298 306 343 331 15 61 306 327 350 345 283 249 216 186 191 199 189 171 191 215 216 230 184 240 240 214 227 225 219 200 178 168
5 57 9 23 137 326 314 288 289 291 313 295 293 285 280 301 315 314 222 302 18 334 328 274 275 183 176 199 183 182 189 191 193 217 217 245 232 216 228 219 198 203 180 169 167
4 18 12 359 349 4 327 318 304 298 328 283 275 301 261 278 291 267 224 223 123 35 341 298 291 252 204 189 199 193 191 189 196 191 184 210 249 50 249 199 208 126 146 160 157
348 299 353 14 23 344 327 312 271 307 323 307 294 272 301 296 293 278 294 159 158 122 9 326 223 229 165 187 201 203 200 201 206 176 206 205 216 58 247 192 189 143 144 155 153
346 341 343 25 16 349 332 318 317 316 299 325 281 296 306 289 275 281 286 307 198 139 213 293 259 267 199 139 257 200 199 201 201 205 193 217 225 256 289 294 128 144 156 161 166
354 22 14 317 337 323 304 306 311 330 327 321 304 6 356 307 314 233 312 295 247 188 296 41 267 296 290 278 286 254 201 196 201 210 213 207 224 244 269 307 304 164 166 163 169
5 344 302 288 298 307 311 300 310 320 306 313 287 325 321 291 287 303 304 316 352 166 311 226 284 335 259 226 248 258 217 214 205 204 216 210 243 236 244 259 189 164 175 174 177
340 324 285 279 298 292 282 310 306 314 295 254 311 309 303 304 308 288 285 273 271 254 293 317 332 320 220 43 303 258 221 201 215 221 224 235 233 232 226 224 203 178 191 184 180